EW4771 Weather Reports


Display with metric or nautical units.
time (UTC)temp
F
wind
direction
speed
MPH
gust
MPH
rain 1hr
in
rain 24hr
in
rain mn
in
humidity
%
barometer
mb
20260506090915 48 140 0.0 0.0 0.00 0.00 0.00 1 1019.3
20260506090409 48 140 0.0 0.0 0.00 0.00 0.00 1 1019.3
20260506085903 48 140 0.0 0.0 0.00 0.00 0.00 1 1019.3
20260506085357 48 140 0.0 0.0 0.00 0.00 0.00 1 1019.4
20260506084851 48 140 0.0 0.0 0.00 0.00 0.00 1 1019.3
20260506084346 48 140 0.0 0.0 0.00 0.00 0.00 1 1019.4
20260506083839 48 140 0.0 0.0 0.00 0.00 0.00 1 1019.3
20260506083334 48 140 0.0 0.0 0.00 0.00 0.00 1 1019.4
20260506082827 48 140 0.0 1.0 0.00 0.00 0.00 1 1019.4
20260506082322 48 140 0.0 1.0 0.00 0.00 0.00 1 1019.4
20260506081815 48 140 0.0 0.0 0.00 0.00 0.00 1 1019.4
20260506081310 48 140 0.0 0.0 0.00 0.00 0.00 1 1019.3
20260506080804 48 140 0.0 0.0 0.00 0.00 0.00 1 1019.4
20260506080303 48 140 0.0 0.0 0.00 0.00 0.00 1 1019.3
20260506073524 48 140 0.0 0.0 0.00 0.00 0.00 1 1019.2
20260506072754 49 140 0.0 0.0 0.00 0.00 0.00 1 1019.2
20260506072254 48 140 0.0 0.0 0.00 0.00 0.00 1 1019.1
20260506072027 48 140 0.0 0.0 0.00 0.00 0.00 1 1019.1
20260506071254 48 140 0.0 0.0 0.00 0.00 0.00 1 1019.1
20260506071024 48 140 0.0 1.0 0.00 0.00 0.00 1 1018.9
20260506070254 48 140 0.0 1.0 0.00 0.00 0.00 1 1018.9
20260506062252 49 140 0.0 1.0 0.00 0.00 0.00 1 1018.3
20260506061750 49 140 0.0 1.0 0.00 0.00 0.00 1 1018.3
20260506061248 49 140 0.0 0.0 0.00 0.01 0.00 1 1018.3
20260506060749 49 140 0.0 0.0 0.00 0.01 0.00 1 1018.3
20260506060250 49 140 0.0 0.0 0.00 0.01 0.00 1 1018.2
20260506051245 49 140 1.0 2.0 0.00 0.02 0.00 4 1018.1
20260506050745 49 140 0.0 2.0 0.00 0.02 0.00 4 1018.0
20260506050245 49 140 0.0 2.0 0.00 0.02 0.00 4 1018.0
20260506044744 49 140 0.0 3.0 0.00 0.03 0.00 6 1017.9
20260506044244 49 140 0.0 3.0 0.00 0.03 0.00 7 1017.9
20260506044017 49 140 0.0 2.0 0.00 0.03 0.00 8 1017.8
20260506043246 49 140 0.0 2.0 0.00 0.03 0.00 9 1017.7
20260506042743 49 140 0.0 2.0 0.00 0.04 0.00 10 1017.6
20260506042243 49 140 0.0 2.0 0.00 0.04 0.00 9 1017.5
20260506041743 49 140 0.0 2.0 0.00 0.04 0.00 10 1017.4
20260506041243 49 140 1.0 4.0 0.00 0.04 0.00 11 1017.4
20260506040737 49 140 1.0 4.0 0.00 0.04 0.00 12 1017.4
20260506040502 49 135 1.0 3.0 0.00 0.04 0.00 13 1017.3
20260506035725 49 135 0.0 3.0 0.00 0.04 0.00 14 1017.3
20260506035219 49 135 0.0 2.0 0.00 0.05 0.00 15 1017.2
20260506034713 49 135 1.0 3.0 0.00 0.05 0.00 16 1017.0
20260506034208 50 134 1.0 3.0 0.00 0.05 0.00 19 1017.0
20260506033708 50 134 0.0 2.0 0.00 0.05 0.00 20 1016.9
20260506033207 50 134 1.0 3.0 0.00 0.06 0.00 22 1016.8
20260506032938 50 134 1.0 4.0 0.00 0.06 0.00 25 1016.8
20260506032206 50 171 1.0 4.0 0.00 0.07 0.00 28 1016.7
20260506031706 50 171 2.0 5.0 0.00 0.07 0.00 28 1016.6
20260506031205 50 172 2.0 5.0 0.00 0.07 0.00 31 1016.5
20260506030704 50 154 1.0 3.0 0.00 0.07 0.00 34 1016.5
20260506030204 51 154 1.0 3.0 0.00 0.07 0.00 37 1016.5
20260506025703 51 155 1.0 4.0 0.00 0.08 0.00 40 1016.4
20260506025202 51 153 1.0 4.0 0.00 0.08 0.00 43 1016.3
20260506024701 51 169 1.0 4.0 0.00 0.08 0.00 47 1016.3
20260506024200 51 169 2.0 5.0 0.00 0.08 0.00 52 1016.3
20260506023658 51 159 2.0 5.0 0.00 0.08 0.00 55 1016.2
20260506023158 51 181 2.0 5.0 0.00 0.08 0.00 58 1016.2
20260506022658 52 157 2.0 5.0 0.00 0.08 0.00 60 1016.1
20260506022159 52 150 3.0 6.0 0.00 0.08 0.00 64 1016.1
20260506021659 52 177 3.0 6.0 0.00 0.08 0.00 68 1016.0
20260506021153 53 201 3.0 7.0 0.00 0.08 0.00 71 1016.0
20260506020652 53 141 2.0 7.0 0.00 0.08 0.00 74 1016.0
20260506020142 54 163 2.0 5.0 0.00 0.08 0.00 75 1016.0
20260506015635 54 182 2.0 5.0 0.00 0.08 0.00 76 1015.8
20260506015129 55 165 2.0 6.0 0.00 0.08 0.00 75 1015.8
20260506014623 55 144 2.0 6.0 0.00 0.08 0.00 77 1015.8
20260506014117 55 196 2.0 5.0 0.00 0.08 0.00 77 1015.7
20260506013611 55 146 2.0 6.0 0.00 0.08 0.00 78 1015.7
20260506013105 55 146 2.0 6.0 0.00 0.08 0.00 79 1015.7
20260506012559 55 137 3.0 5.0 0.00 0.08 0.00 79 1015.6
20260506012054 56 163 3.0 7.0 0.00 0.08 0.00 80 1015.5
20260506011821 56 163 3.0 8.0 0.00 0.08 0.00 80 1015.5
20260506011544 56 124 3.0 8.0 0.00 0.08 0.00 81 1015.4
20260506010535 56 182 3.0 7.0 0.00 0.08 0.00 81 1015.4
20260506010029 56 165 3.0 7.0 0.00 0.08 0.00 82 1015.5
20260506005523 57 163 3.0 7.0 0.00 0.08 0.00 82 1015.4
20260506005016 57 146 2.0 7.0 0.00 0.08 0.00 82 1015.5
20260506004742 57 166 2.0 7.0 0.00 0.08 0.00 83 1015.5
20260506004005 57 178 2.0 5.0 0.00 0.08 0.00 83 1015.4
20260506003459 58 115 1.0 4.0 0.00 0.08 0.00 83 1015.4
20260506002953 58 297 2.0 8.0 0.00 0.09 0.00 83 1015.4
20260506002447 58 200 2.0 8.0 0.00 0.09 0.00 83 1015.4
20260506001941 58 171 2.0 7.0 0.00 0.09 0.00 83 1015.4
20260506001705 58 159 2.0 7.0 0.00 0.09 0.00 83 1015.4
20260506000928 58 188 2.0 5.0 0.00 0.10 0.00 83 1015.4
20260506000655 58 154 3.0 8.0 0.00 0.10 0.00 83 1015.3
20260505235917 58 74 3.0 9.0 0.00 0.10 0.00 83 1015.3
20260505235411 59 136 2.0 7.0 0.00 0.11 0.00 83 1015.3
20260505234905 58 344 3.0 8.0 0.00 0.11 0.00 82 1015.3
20260505234359 58 202 3.0 10.0 0.00 0.11 0.00 83 1015.3
20260505233853 59 148 4.0 11.0 0.00 0.12 0.00 83 1015.3
20260505233619 59 185 4.0 11.0 0.00 0.12 0.00 81 1015.4
20260505232841 59 134 3.0 10.0 0.00 0.13 0.00 83 1015.4
20260505232335 59 168 3.0 8.0 0.00 0.13 0.00 82 1015.4
20260505231829 59 191 3.0 8.0 0.00 0.13 0.00 81 1015.4
20260505231329 60 147 3.0 9.0 0.00 0.13 0.00 81 1015.4
20260505231057 60 134 2.0 9.0 0.00 0.13 0.00 80 1015.4
20260505230326 60 173 2.0 7.0 0.00 0.13 0.00 80 1015.5
20260505225826 60 207 3.0 7.0 0.00 0.13 0.00 81 1015.5
20260505225326 60 115 2.0 5.0 0.00 0.13 0.00 79 1015.5
20260505224827 60 164 2.0 6.0 0.00 0.13 0.00 80 1015.4
20260505224327 60 250 2.0 7.0 0.00 0.13 0.00 80 1015.5
20260505223826 60 128 4.0 9.0 0.00 0.13 0.00 79 1015.5
20260505223325 60 158 3.0 9.0 0.00 0.13 0.00 79 1015.6
20260505222823 60 193 4.0 10.0 0.00 0.13 0.00 78 1015.5
20260505222554 61 144 4.0 10.0 0.00 0.13 0.00 80 1015.6
20260505221825 61 132 3.0 8.0 0.00 0.13 0.00 79 1015.6
20260505221325 61 143 2.0 8.0 0.00 0.13 0.00 78 1015.6
20260505220825 62 70 2.0 8.0 0.00 0.13 0.00 79 1015.6
20260505220325 61 151 1.0 6.0 0.00 0.13 0.00 78 1015.7
20260505215822 61 355 1.0 4.0 0.00 0.13 0.00 81 1015.7
20260505215321 61 108 1.0 5.0 0.00 0.13 0.00 81 1015.7
20260505214813 60 110 2.0 5.0 0.00 0.13 0.00 80 1015.8
20260505214315 60 164 2.0 8.0 0.00 0.13 0.00 82 1015.7
20260505214044 59 158 2.0 8.0 0.00 0.13 0.00 82 1015.8
20260505213545 59 135 1.0 5.0 0.00 0.13 0.00 82 1015.8
20260505212814 59 185 2.0 9.0 0.00 0.13 0.00 82 1015.8
20260505212314 59 157 3.0 9.0 0.00 0.13 0.00 80 1016.0
20260505211814 60 156 3.0 7.0 0.00 0.13 0.00 79 1016.0
20260505211315 60 152 1.0 5.0 0.00 0.13 0.00 83 1016.0
20260505211045 60 154 2.0 8.0 0.00 0.13 0.00 81 1016.0
20260505210314 59 24 2.0 9.0 0.00 0.13 0.00 82 1016.0
20260505205813 60 190 3.0 9.0 0.00 0.13 0.00 83 1016.0
20260505205314 60 165 2.0 9.0 0.00 0.13 0.00 83 1016.1
20260505205045 59 302 1.0 5.0 0.00 0.13 0.00 83 1016.0
20260505204545 59 161 2.0 7.0 0.00 0.13 0.00 81 1015.8
20260505203814 58 165 3.0 7.0 0.00 0.13 0.00 83 1016.0
20260505203317 57 137 3.0 7.0 0.00 0.13 0.00 81 1016.0
20260505202816 57 166 3.0 6.0 0.00 0.13 0.00 82 1016.1
20260505202315 58 160 3.0 5.0 0.00 0.13 0.00 82 1016.0
20260505202041 58 165 2.0 5.0 0.00 0.13 0.00 82 1016.1
20260505201303 57 171 3.0 6.0 0.00 0.13 0.00 77 1016.1
20260505200800 57 202 2.0 6.0 0.00 0.13 0.00 80 1016.1
20260505200300 57 194 3.0 7.0 0.00 0.13 0.00 74 1016.1
20260505195800 56 182 4.0 7.0 0.00 0.13 0.00 76 1016.1
20260505195259 56 171 3.0 7.0 0.00 0.13 0.00 72 1016.1
20260505194759 56 174 3.0 6.0 0.00 0.13 0.00 65 1016.1
20260505194300 56 166 2.0 6.0 0.00 0.13 0.00 67 1016.1
20260505193759 56 144 2.0 4.0 0.00 0.13 0.00 58 1016.0
20260505193300 55 147 1.0 3.0 0.00 0.13 0.00 60 1016.1
20260505192800 55 147 2.0 7.0 0.00 0.13 0.00 39 1016.1
20260505192259 54 147 2.0 7.0 0.00 0.13 0.00 45 1016.1
20260505191755 55 142 1.0 5.0 0.00 0.13 0.00 34 1016.1
20260505191256 54 177 1.0 4.0 0.00 0.13 0.00 11 1016.1
20260505190755 54 267 1.0 4.0 0.00 0.13 0.00 5 1016.1
20260505190253 53 250 2.0 5.0 0.00 0.13 0.00 6 1016.0
20260505185752 53 26 2.0 6.0 0.00 0.13 0.00 1 1016.0
20260505185252 53 121 2.0 6.0 0.00 0.13 0.00 1 1016.0
20260505184753 53 113 2.0 7.0 0.00 0.13 0.00 1 1016.0
20260505184523 53 122 3.0 7.0 0.00 0.13 0.00 1 1016.0
20260505183747 52 163 2.0 5.0 0.00 0.13 0.00 1 1016.0
20260505183240 52 173 3.0 7.0 0.00 0.14 0.00 1 1016.0
20260505183006 52 159 3.0 7.0 0.00 0.14 0.00 1 1015.8
20260505182228 52 166 3.0 7.0 0.00 0.14 0.00 1 1015.8
20260505181722 52 126 2.0 7.0 0.00 0.14 0.00 1 1015.7
20260505181218 53 153 1.0 5.0 0.00 0.15 0.00 1 1015.7
20260505180943 53 153 2.0 5.0 0.00 0.16 0.00 1 1015.7
20260505180204 52 168 2.0 5.0 0.00 0.17 0.00 1 1015.6
20260505175659 52 171 2.0 5.0 0.00 0.17 0.00 1 1015.6
20260505175152 52 169 2.0 5.0 0.00 0.19 0.00 1 1015.6
20260505174646 51 194 1.0 4.0 0.00 0.20 0.00 1 1015.6
20260505174140 51 194 0.0 3.0 0.00 0.21 0.00 1 1015.5
20260505173904 51 194 1.0 6.0 0.00 0.21 0.00 1 1015.5
20260505173400 51 194 2.0 6.0 0.00 0.21 0.00 1 1015.5
20260505172622 51 161 1.0 4.0 0.00 0.22 0.00 1 1015.4
20260505172117 51 161 1.0 5.0 0.00 0.22 0.00 1 1015.4
20260505171610 51 161 2.0 5.0 0.00 0.22 0.00 1 1015.4
20260505171104 51 178 2.0 4.0 0.00 0.22 0.00 1 1015.3
20260505170558 51 179 2.0 5.0 0.00 0.22 0.00 1 1015.4
20260505170052 51 167 3.0 5.0 0.00 0.22 0.00 1 1015.3
20260505165547 52 164 2.0 5.0 0.00 0.22 0.00 1 1015.4
20260505165040 51 166 1.0 4.0 0.00 0.23 0.00 1 1015.3
20260505164534 50 19 0.0 1.0 0.00 0.23 0.00 1 1015.3
20260505164028 49 18 0.0 0.0 0.00 0.23 0.00 1 1015.3
20260505163759 49 18 0.0 0.0 0.00 0.24 0.00 1 1015.3
20260505163255 49 18 0.0 0.0 0.00 0.24 0.00 1 1015.3
20260505162524 49 18 0.0 3.0 0.00 0.24 0.00 1 1015.3
20260505162022 48 18 0.0 3.0 0.00 0.24 0.00 1 1015.3
20260505161519 48 19 0.0 2.0 0.00 0.24 0.00 1 1015.3
20260505161020 48 19 0.0 2.0 0.00 0.24 0.00 1 1015.3
20260505160520 47 18 0.0 0.0 0.00 0.24 0.00 1 1015.2
20260505160251 47 16 0.0 0.0 0.00 0.24 0.00 1 1015.3
20260505153014 46 34 1.0 3.0 0.00 0.24 0.00 1 1015.2
20260505152515 46 34 1.0 4.0 0.00 0.24 0.00 1 1015.3
20260505152247 45 35 1.0 4.0 0.00 0.24 0.00 2 1015.2
20260505151516 46 35 1.0 3.0 0.00 0.24 0.00 1 1015.2
20260505151015 46 31 1.0 4.0 0.00 0.24 0.00 1 1015.2
20260505150509 46 39 1.0 4.0 0.00 0.24 0.00 1 1015.2
20260505140448 45 57 1.0 3.0 0.00 0.24 0.00 2 1014.6
20260505124940 45 57 0.0 2.0 0.00 0.24 0.00 1 1014.2
20260505124442 44 58 0.0 2.0 0.00 0.24 0.00 1 1014.1
20260505123940 44 58 0.0 3.0 0.00 0.24 0.00 1 1014.1
20260505123712 44 58 0.0 4.0 0.00 0.24 0.00 1 1014.0
20260505122940 44 58 0.0 4.0 0.00 0.24 0.00 1 1014.0
20260505122440 44 49 1.0 5.0 0.00 0.24 0.00 1 1014.0
20260505121941 44 49 1.0 5.0 0.00 0.24 0.00 1 1014.1
20260505121441 44 46 0.0 4.0 0.00 0.25 0.00 1 1014.0
20260505120939 44 55 0.0 2.0 0.00 0.25 0.00 1 1014.1
20260505120439 44 55 0.0 2.0 0.00 0.25 0.00 1 1014.2
20260505115933 44 55 0.0 2.0 0.00 0.25 0.00 1 1014.1
20260505115429 44 55 0.0 2.0 0.00 0.25 0.00 1 1014.1
20260505114921 44 32 0.0 1.0 0.00 0.25 0.00 1 1014.0
20260505114415 44 32 0.0 2.0 0.00 0.25 0.00 1 1014.1
20260505113909 44 32 0.0 3.0 0.00 0.25 0.00 1 1014.1
20260505113403 44 114 0.0 3.0 0.00 0.25 0.00 1 1014.1
20260505112857 44 107 0.0 2.0 0.00 0.25 0.00 1 1014.2
20260505112351 44 107 0.0 1.0 0.00 0.25 0.00 1 1014.2
20260505111844 44 107 0.0 1.0 0.00 0.25 0.00 1 1014.2
20260505111610 44 107 0.0 1.0 0.00 0.25 0.00 1 1014.2
20260505110833 44 106 0.0 1.0 0.00 0.25 0.00 1 1014.1
20260505110327 44 106 0.0 0.0 0.00 0.25 0.00 1 1014.1
20260505101733 44 88 0.0 3.0 0.00 0.25 0.00 1 1014.4
20260505101227 44 88 1.0 6.0 0.00 0.25 0.00 1 1014.3
20260505100721 44 88 1.0 6.0 0.00 0.25 0.00 1 1014.3
20260505100215 44 88 0.0 3.0 0.00 0.25 0.00 1 1014.3
20260505095709 44 88 1.0 3.0 0.00 0.25 0.00 1 1014.3
20260505095203 44 88 1.0 3.0 0.00 0.25 0.00 1 1014.4
20260505094929 44 88 0.0 2.0 0.00 0.25 0.00 1 1014.3
20260505094151 44 88 1.0 3.0 0.00 0.25 0.00 1 1014.5
20260505093645 44 88 1.0 6.0 0.00 0.25 0.00 1 1014.5
20260505093410 44 88 0.0 5.0 0.00 0.25 0.00 1 1014.6
20260505092633 44 88 0.0 0.0 0.00 0.25 0.00 1 1014.5
20260505092127 44 88 0.0 0.0 0.00 0.25 0.00 1 1014.4
20260505091621 44 88 0.0 6.0 0.00 0.25 0.00 1 1014.6